When you browse on this site, cookies collect data to enhance your experience and personalize the content and advertising you see.
Visit our Privacy Policy to learn more. By continuing to use the site, you agree to this use of cookies and data.
  • In Lithuania
  • List of Countries
  • For 7 days
  • Water Temperature
  • Weather Map
  • Weather Widgets
  • user-avatar
    Login

    Hourly Weather Algiers

    Today, 17 October, Thursday

    Time Temperature Precipitation Wind Pressure Humidity
    00:00 +22°C° 0 mm 1 mps 751 mmHg 60%
    01:00 +22°C° 0 mm 1 mps 750 mmHg 60%
    02:00 +22°C° 0 mm 1 mps 750 mmHg 60%
    03:00 +21°C° 0 mm 1 mps 750 mmHg 61%
    04:00 +22°C° 0 mm 1 mps 750 mmHg 59%
    05:00 +22°C° 0 mm 1 mps 750 mmHg 58%
    06:00 +22°C° 0 mm 1 mps 750 mmHg 57%
    07:00 +23°C° 0 mm 1 mps 750 mmHg 54%
    08:00 +24°C° 0 mm 1 mps 751 mmHg 52%
    09:00 +25°C° 0 mm 2 mps 751 mmHg 50%
    10:00 +25°C° 0 mm 2 mps 751 mmHg 50%
    11:00 +26°C° 0 mm 2 mps 751 mmHg 50%
    12:00 +26°C° 0 mm 2 mps 751 mmHg 49%
    13:00 +26°C° 0 mm 2 mps 750 mmHg 51%
    14:00 +26°C° 0 mm 2 mps 750 mmHg 53%
    15:00 +25°C° 0 mm 3 mps 749 mmHg 56%
    16:00 +25°C° 0 mm 2 mps 750 mmHg 58%
    17:00 +24°C° 0 mm 1 mps 750 mmHg 61%
    18:00 +23°C° 0 mm 1 mps 750 mmHg 64%
    19:00 +23°C° 0 mm 1 mps 750 mmHg 65%
    20:00 +23°C° 0 mm 1 mps 750 mmHg 66%
    21:00 +22°C° 0 mm 1 mps 751 mmHg 67%
    22:00 +22°C° 0 mm 1 mps 751 mmHg 67%
    23:00 +22°C° 0 mm 1 mps 751 mmHg 67%

    Tomorrow, 18 October, Friday

    Time Temperature Precipitation Wind Pressure Humidity
    00:00 +22°C° 0 mm 1 mps 751 mmHg 67%
    01:00 +22°C° 0 mm 1 mps 750 mmHg 68%
    02:00 +22°C° 0 mm 1 mps 750 mmHg 69%
    03:00 +21°C° 0 mm 2 mps 750 mmHg 71%
    04:00 +20°C° 0 mm 2 mps 750 mmHg 71%
    05:00 +20°C° 0 mm 2 mps 750 mmHg 72%
    06:00 +20°C° 0 mm 2 mps 750 mmHg 72%
    07:00 +21°C° 0 mm 2 mps 750 mmHg 67%
    08:00 +23°C° 0 mm 1 mps 750 mmHg 62%
    09:00 +25°C° 0 mm 1 mps 751 mmHg 56%
    10:00 +25°C° 0 mm 2 mps 750 mmHg 54%
    11:00 +26°C° 0 mm 2 mps 750 mmHg 53%
    12:00 +26°C° 0 mm 2 mps 750 mmHg 51%
    13:00 +26°C° 0 mm 3 mps 750 mmHg 52%
    14:00 +26°C° 0 mm 3 mps 749 mmHg 54%
    15:00 +25°C° 0 mm 3 mps 749 mmHg 56%
    16:00 +25°C° 0 mm 2 mps 749 mmHg 58%
    17:00 +24°C° 0 mm 1 mps 749 mmHg 60%
    18:00 +21°C° 0 mm 0 mps 749 mmHg 62%
    19:00 +23°C° 0 mm 1 mps 749 mmHg 63%
    20:00 +23°C° 0 mm 1 mps 749 mmHg 63%
    21:00 +23°C° 0 mm 1 mps 749 mmHg 64%
    22:00 +23°C° 0 mm 1 mps 749 mmHg 64%
    23:00 +23°C° 0 mm 1 mps 748 mmHg 63%

    Day after tomorrow, 19 October, Saturday

    Time Temperature Precipitation Wind Pressure Humidity
    00:00 +23°C° 0 mm 1 mps 748 mmHg 63%
    01:00 +23°C° 0 mm 1 mps 748 mmHg 62%
    02:00 +23°C° 0 mm 2 mps 747 mmHg 61%
    03:00 +23°C° 0 mm 2 mps 747 mmHg 60%
    04:00 +23°C° 0 mm 1 mps 747 mmHg 61%
    05:00 +23°C° 0 mm 1 mps 747 mmHg 61%
    06:00 +21°C° 0 mm 0 mps 746 mmHg 62%
    07:00 +22°C° 0 mm 0 mps 747 mmHg 57%
    08:00 +26°C° 0 mm 1 mps 747 mmHg 52%
    09:00 +27°C° 0 mm 1 mps 747 mmHg 48%
    10:00 +27°C° 0 mm 2 mps 747 mmHg 47%
    11:00 +28°C° 0 mm 2 mps 747 mmHg 47%
    12:00 +28°C° 0 mm 3 mps 746 mmHg 47%
    13:00 +28°C° 0 mm 3 mps 746 mmHg 48%
    14:00 +27°C° 0 mm 3 mps 746 mmHg 50%
    15:00 +27°C° 0 mm 2 mps 745 mmHg 52%
    16:00 +26°C° 0 mm 2 mps 745 mmHg 55%
    17:00 +25°C° 0 mm 1 mps 745 mmHg 58%
    18:00 +24°C° 0 mm 1 mps 745 mmHg 61%
    19:00 +24°C° 0 mm 1 mps 745 mmHg 61%
    20:00 +24°C° 0 mm 1 mps 746 mmHg 61%
    21:00 +22°C° 0 mm 0 mps 746 mmHg 61%
    22:00 +22°C° 0 mm 0 mps 746 mmHg 59%
    23:00 +23°C° 0 mm 0 mps 745 mmHg 58%

    20 October, Sunday

    Time Temperature Precipitation Wind Pressure Humidity
    00:00 +23°C° 0 mm 0 mps 745 mmHg 56%
    01:00 +25°C° 0 mm 1 mps 745 mmHg 55%
    02:00 +25°C° 0 mm 1 mps 745 mmHg 55%
    03:00 +25°C° 0 mm 2 mps 745 mmHg 54%
    04:00 +24°C° 0 mm 2 mps 745 mmHg 56%
    05:00 +24°C° 0 mm 1 mps 745 mmHg 57%
    06:00 +24°C° 0 mm 1 mps 745 mmHg 58%
    07:00 +25°C° 0 mm 1 mps 746 mmHg 54%
    08:00 +26°C° 0 mm 2 mps 746 mmHg 49%
    09:00 +28°C° 0 mm 2 mps 746 mmHg 45%
    10:00 +29°C° 0 mm 3 mps 746 mmHg 41%
    11:00 +30°C° 0 mm 3 mps 746 mmHg 37%
    12:00 +32°C° 0 mm 4 mps 746 mmHg 33%
    13:00 +30°C° 0 mm 4 mps 746 mmHg 41%
    14:00 +28°C° 0 mm 5 mps 745 mmHg 50%
    15:00 +26°C° 0 mm 5 mps 745 mmHg 58%
    16:00 +25°C° 0 mm 4 mps 746 mmHg 65%
    17:00 +24°C° 0 mm 3 mps 746 mmHg 72%
    18:00 +23°C° 0 mm 2 mps 746 mmHg 79%
    19:00 +23°C° 0.1 mm 2 mps 747 mmHg 79%
    20:00 +23°C° 0.1 mm 2 mps 747 mmHg 79%
    21:00 +23°C° 0.1 mm 2 mps 748 mmHg 79%
    22:00 +23°C° 0 mm 2 mps 748 mmHg 78%
    23:00 +22°C° 0 mm 3 mps 748 mmHg 77%

    21 October, Monday

    Time Temperature Precipitation Wind Pressure Humidity
    00:00 +22°C° 0 mm 3 mps 748 mmHg 75%
    01:00 +22°C° 0 mm 3 mps 748 mmHg 78%
    02:00 +22°C° 0 mm 4 mps 748 mmHg 81%
    03:00 +21°C° 0 mm 4 mps 748 mmHg 84%
    04:00 +21°C° 0 mm 3 mps 748 mmHg 84%
    05:00 +21°C° 0 mm 3 mps 748 mmHg 84%
    06:00 +21°C° 0 mm 3 mps 748 mmHg 84%
    07:00 +21°C° 0.1 mm 3 mps 748 mmHg 82%
    08:00 +22°C° 0.1 mm 4 mps 748 mmHg 80%
    09:00 +22°C° 0.1 mm 5 mps 749 mmHg 78%
    10:00 +23°C° 0 mm 5 mps 748 mmHg 73%
    11:00 +24°C° 0 mm 6 mps 748 mmHg 68%
    12:00 +26°C° 0 mm 7 mps 748 mmHg 63%
    13:00 +26°C° 0.1 mm 7 mps 747 mmHg 66%
    14:00 +26°C° 0.1 mm 8 mps 747 mmHg 68%
    15:00 +24°C° 0.1 mm 8 mps 746 mmHg 70%
    16:00 +24°C° 0.1 mm 9 mps 746 mmHg 75%
    17:00 +23°C° 0.1 mm 9 mps 746 mmHg 79%
    18:00 +22°C° 0.1 mm 9 mps 746 mmHg 84%
    19:00 +22°C° 0 mm 9 mps 746 mmHg 83%
    20:00 +22°C° 0 mm 9 mps 746 mmHg 82%
    21:00 +22°C° 0 mm 9 mps 746 mmHg 81%
    22:00 +22°C° 0 mm 8 mps 746 mmHg 79%
    23:00 +22°C° 0 mm 7 mps 746 mmHg 77%

    22 October, Tuesday

    Time Temperature Precipitation Wind Pressure Humidity
    00:00 +22°C° 0 mm 6 mps 746 mmHg 75%
    01:00 +22°C° 0 mm 5 mps 745 mmHg 76%
    02:00 +22°C° 0 mm 5 mps 745 mmHg 76%
    03:00 +21°C° 0 mm 4 mps 744 mmHg 77%
    04:00 +21°C° 0 mm 4 mps 744 mmHg 81%
    05:00 +20°C° 0 mm 4 mps 744 mmHg 85%
    06:00 +20°C° 0 mm 4 mps 744 mmHg 89%
    07:00 +21°C° 0 mm 3 mps 744 mmHg 82%
    08:00 +23°C° 0 mm 2 mps 744 mmHg 75%
    09:00 +24°C° 0 mm 2 mps 744 mmHg 68%
    10:00 +25°C° 0 mm 3 mps 744 mmHg 61%
    11:00 +27°C° 0 mm 3 mps 743 mmHg 55%
    12:00 +29°C° 0 mm 4 mps 743 mmHg 48%
    13:00 +29°C° 0 mm 5 mps 742 mmHg 45%
    14:00 +30°C° 0 mm 6 mps 741 mmHg 42%
    15:00 +32°C° 0 mm 7 mps 741 mmHg 39%
    16:00 +29°C° 0 mm 7 mps 741 mmHg 48%
    17:00 +27°C° 0 mm 7 mps 740 mmHg 57%
    18:00 +24°C° 0 mm 6 mps 740 mmHg 66%
    19:00 +23°C° 0 mm 6 mps 740 mmHg 70%
    20:00 +22°C° 0 mm 7 mps 740 mmHg 75%
    21:00 +21°C° 0 mm 7 mps 740 mmHg 80%
    22:00 +21°C° 0 mm 6 mps 740 mmHg 81%
    23:00 +20°C° 0 mm 6 mps 740 mmHg 82%
    Show more